Time,TemperatureF,DewpointF,PressureIn,WindDirection,WindDirectionDegrees,WindSpeedMPH,WindSpeedGustMPH,Humidity,HourlyPrecipIn,Conditions,Clouds,dailyrainin,SoftwareType,DateUTC
2013-04-17 00:00:00,72.3,66.6,-100.00,NE,45,6.0,6.0,82,0.00,,,0.00,meteohub,2013-04-17 05:00:00,
2013-04-17 00:02:00,72.3,66.6,-100.00,SSW,203,4.0,6.0,82,0.00,,,0.00,meteohub,2013-04-17 05:02:00,
2013-04-17 00:04:00,72.3,66.6,-100.00,SSE,158,3.0,6.0,82,0.00,,,0.00,meteohub,2013-04-17 05:04:00,
2013-04-17 00:08:00,72.1,66.7,-100.00,SSE,158,3.0,6.0,83,0.00,,,0.00,meteohub,2013-04-17 05:08:00,
2013-04-17 00:12:00,72.1,66.7,-100.00,ENE,68,6.0,6.0,83,0.00,,,0.00,meteohub,2013-04-17 05:12:00,
2013-04-17 00:14:00,72.1,66.7,-100.00,ENE,68,6.0,6.0,83,0.00,,,0.00,meteohub,2013-04-17 05:14:00,
2013-04-17 00:16:00,72.0,66.6,-100.00,SSW,203,4.0,6.0,83,0.00,,,0.00,meteohub,2013-04-17 05:16:00,
2013-04-17 00:17:00,72.1,66.7,-100.00,ESE,113,6.0,6.0,83,0.00,,,0.00,meteohub,2013-04-17 05:17:00,
2013-04-17 00:20:00,72.0,66.9,-100.00,NE,45,5.0,6.0,84,0.00,,,0.00,meteohub,2013-04-17 05:20:00,
2013-04-17 00:22:00,72.0,66.9,-100.00,South,180,4.0,6.0,84,0.00,,,0.00,meteohub,2013-04-17 05:22:00,
2013-04-17 00:24:00,72.0,66.9,-100.00,ESE,113,6.0,6.0,84,0.00,,,0.00,meteohub,2013-04-17 05:24:00,
2013-04-17 00:28:00,71.8,66.7,-100.00,SSE,158,2.0,6.0,84,0.00,,,0.00,meteohub,2013-04-17 05:28:00,
2013-04-17 00:30:00,71.8,66.7,-100.00,SW,225,4.0,6.0,84,0.00,,,0.00,meteohub,2013-04-17 05:30:00,
2013-04-17 00:32:00,71.8,66.7,-100.00,East,90,1.0,6.0,84,0.00,,,0.00,meteohub,2013-04-17 05:32:00,
2013-04-17 00:36:00,71.8,67.1,-100.00,SE,135,6.0,6.0,85,0.00,,,0.00,meteohub,2013-04-17 05:36:00,
2013-04-17 00:38:00,71.8,67.1,-100.00,East,90,5.0,6.0,85,0.00,,,0.00,meteohub,2013-04-17 05:38:00,
2013-04-17 00:40:00,71.8,67.1,-100.00,East,90,5.0,6.0,85,0.00,,,0.00,meteohub,2013-04-17 05:40:00,
2013-04-17 00:42:00,71.8,67.1,-100.00,East,90,5.0,6.0,85,0.00,,,0.00,meteohub,2013-04-17 05:42:00,
2013-04-17 00:46:00,71.4,66.7,-100.00,SW,225,12.0,12.0,85,0.00,,,0.00,meteohub,2013-04-17 05:46:00,
2013-04-17 00:47:00,71.4,66.7,-100.00,ESE,113,3.0,6.0,85,0.00,,,0.00,meteohub,2013-04-17 05:47:00,
2013-04-17 00:52:00,71.4,67.1,-100.00,ENE,68,1.0,12.0,86,0.00,,,0.00,meteohub,2013-04-17 05:52:00,
2013-04-17 00:54:00,71.4,67.1,-100.00,ESE,113,3.0,12.0,86,0.00,,,0.00,meteohub,2013-04-17 05:54:00,
2013-04-17 00:56:00,71.4,67.1,-100.00,SW,225,3.0,12.0,86,0.00,,,0.00,meteohub,2013-04-17 05:56:00,
2013-04-17 01:00:00,71.4,67.1,-100.00,ESE,113,3.0,12.0,86,0.00,,,0.00,meteohub,2013-04-17 06:00:00,
2013-04-17 01:02:00,71.4,67.1,-100.00,ESE,113,3.0,12.0,86,0.00,,,0.00,meteohub,2013-04-17 06:02:00,
2013-04-17 01:10:00,71.2,67.1,-100.00,South,180,2.0,4.0,87,0.00,,,0.00,meteohub,2013-04-17 06:10:00,
2013-04-17 01:12:00,71.2,67.1,-100.00,South,180,2.0,4.0,87,0.00,,,0.00,meteohub,2013-04-17 06:12:00,
2013-04-17 01:14:00,71.2,67.1,-100.00,South,180,2.0,4.0,87,0.00,,,0.00,meteohub,2013-04-17 06:14:00,
2013-04-17 01:17:00,71.2,67.1,-100.00,ESE,113,2.0,2.0,87,0.00,,,0.00,meteohub,2013-04-17 06:17:00,
2013-04-17 01:18:00,71.2,67.1,-100.00,SSW,203,3.0,3.0,87,0.00,,,0.00,meteohub,2013-04-17 06:18:00,
2013-04-17 01:23:00,71.2,67.1,-100.00,South,180,4.0,6.0,87,0.00,,,0.00,meteohub,2013-04-17 06:23:00,
2013-04-17 01:25:00,71.2,67.1,-100.00,ESE,113,4.0,6.0,87,0.00,,,0.00,meteohub,2013-04-17 06:25:00,
2013-04-17 01:27:00,71.2,67.1,-100.00,ESE,113,4.0,6.0,87,0.00,,,0.00,meteohub,2013-04-17 06:27:00,
2013-04-17 01:31:00,71.2,67.5,-100.00,NE,45,0.0,6.0,88,0.00,,,0.00,meteohub,2013-04-17 06:31:00,
2013-04-17 01:32:00,71.2,67.5,-100.00,South,180,2.0,6.0,88,0.00,,,0.00,meteohub,2013-04-17 06:32:00,
2013-04-17 01:33:00,71.2,67.5,-100.00,South,180,2.0,6.0,88,0.00,,,0.00,meteohub,2013-04-17 06:33:00,
2013-04-17 01:37:00,71.2,67.5,-100.00,South,180,3.0,4.0,88,0.00,,,0.00,meteohub,2013-04-17 06:37:00,
2013-04-17 01:39:00,71.2,67.5,-100.00,South,180,5.0,5.0,88,0.00,,,0.00,meteohub,2013-04-17 06:39:00,
2013-04-17 01:45:00,71.2,67.5,-100.00,SE,135,1.0,5.0,88,0.00,,,0.00,meteohub,2013-04-17 06:45:00,
2013-04-17 01:47:00,71.2,67.5,-100.00,East,90,2.0,5.0,88,0.00,,,0.00,meteohub,2013-04-17 06:47:00,
2013-04-17 01:53:00,71.4,67.6,-100.00,SSW,203,4.0,5.0,88,0.00,,,0.00,meteohub,2013-04-17 06:53:00,
2013-04-17 01:55:00,71.2,67.5,-100.00,NE,45,5.0,5.0,88,0.00,,,0.00,meteohub,2013-04-17 06:55:00,
2013-04-17 01:59:00,71.4,67.6,-100.00,ENE,68,8.0,8.0,88,0.00,,,0.00,meteohub,2013-04-17 06:59:00,
2013-04-17 02:03:00,71.4,67.6,-100.00,ENE,68,8.0,8.0,88,0.00,,,0.00,meteohub,2013-04-17 07:03:00,
2013-04-17 02:05:00,71.4,67.6,-100.00,ENE,68,8.0,8.0,88,0.00,,,0.00,meteohub,2013-04-17 07:05:00,
2013-04-17 02:07:00,71.4,68.0,-100.00,ESE,113,4.0,5.0,89,0.00,,,0.00,meteohub,2013-04-17 07:07:00,
2013-04-17 02:13:00,71.4,68.0,-100.00,SSE,158,1.0,8.0,89,0.00,,,0.00,meteohub,2013-04-17 07:13:00,
2013-04-17 02:15:00,71.4,68.0,-100.00,South,180,4.0,8.0,89,0.00,,,0.00,meteohub,2013-04-17 07:15:00,
2013-04-17 02:17:00,71.4,68.0,-100.00,WNW,293,3.0,8.0,89,0.00,,,0.00,meteohub,2013-04-17 07:17:00,
2013-04-17 02:21:00,71.4,68.0,-100.00,NE,45,6.0,8.0,89,0.00,,,0.00,meteohub,2013-04-17 07:21:00,
2013-04-17 02:23:00,71.4,68.0,-100.00,SSE,158,4.0,8.0,89,0.00,,,0.00,meteohub,2013-04-17 07:23:00,
2013-04-17 02:25:00,71.4,68.0,-100.00,ENE,68,4.0,6.0,89,0.00,,,0.00,meteohub,2013-04-17 07:25:00,
2013-04-17 02:31:00,71.4,68.0,-100.00,SSW,203,1.0,6.0,89,0.00,,,0.00,meteohub,2013-04-17 07:31:00,
2013-04-17 02:32:00,71.4,68.0,-100.00,SSW,203,1.0,6.0,89,0.00,,,0.00,meteohub,2013-04-17 07:32:00,
2013-04-17 02:33:00,71.6,68.2,-100.00,East,90,9.0,9.0,89,0.00,,,0.00,meteohub,2013-04-17 07:33:00,
2013-04-17 02:35:00,71.6,68.2,-100.00,SW,225,2.0,9.0,89,0.00,,,0.00,meteohub,2013-04-17 07:35:00,
2013-04-17 02:37:00,71.8,68.4,-100.00,SW,225,2.0,9.0,89,0.00,,,0.00,meteohub,2013-04-17 07:37:00,
2013-04-17 02:39:00,71.8,68.0,-100.00,ENE,68,4.0,9.0,88,0.00,,,0.00,meteohub,2013-04-17 07:39:00,
2013-04-17 02:41:00,71.8,68.0,-100.00,SSW,203,6.0,9.0,88,0.00,,,0.00,meteohub,2013-04-17 07:41:00,
2013-04-17 02:43:00,71.8,68.0,-100.00,SSW,203,2.0,9.0,88,0.00,,,0.00,meteohub,2013-04-17 07:43:00,
2013-04-17 02:47:00,71.8,68.0,-100.00,SSE,158,5.0,9.0,88,0.00,,,0.00,meteohub,2013-04-17 07:47:00,
2013-04-17 02:49:00,72.0,68.2,-100.00,ENE,68,6.0,9.0,88,0.00,,,0.00,meteohub,2013-04-17 07:49:00,
2013-04-17 02:51:00,72.0,68.2,-100.00,SE,135,1.0,9.0,88,0.00,,,0.00,meteohub,2013-04-17 07:51:00,
2013-04-17 02:54:00,72.0,68.2,-100.00,SW,225,0.0,9.0,88,0.00,,,0.00,meteohub,2013-04-17 07:54:00,
2013-04-17 02:56:00,72.1,68.4,-100.00,ESE,113,4.0,6.0,88,0.00,,,0.00,meteohub,2013-04-17 07:56:00,
2013-04-17 03:00:00,72.1,68.4,-100.00,South,180,6.0,6.0,88,0.00,,,0.00,meteohub,2013-04-17 08:00:00,
2013-04-17 03:04:00,72.1,68.4,-100.00,South,180,6.0,6.0,88,0.00,,,0.00,meteohub,2013-04-17 08:04:00,
2013-04-17 03:12:00,72.3,68.5,-100.00,SSE,158,1.0,6.0,88,0.00,,,0.00,meteohub,2013-04-17 08:12:00,
2013-04-17 03:14:00,72.3,68.5,-100.00,SSE,158,6.0,6.0,88,0.00,,,0.00,meteohub,2013-04-17 08:14:00,
2013-04-17 03:17:00,72.3,68.2,-100.00,SSW,203,6.0,6.0,87,0.00,,,0.00,meteohub,2013-04-17 08:17:00,
2013-04-17 03:20:00,72.3,68.2,-100.00,SSW,203,2.0,6.0,87,0.00,,,0.00,meteohub,2013-04-17 08:20:00,
2013-04-17 03:24:00,72.3,68.2,-100.00,SSW,203,6.0,6.0,87,0.00,,,0.00,meteohub,2013-04-17 08:24:00,
2013-04-17 03:26:00,72.5,68.4,-100.00,SSW,203,5.0,6.0,87,0.00,,,0.00,meteohub,2013-04-17 08:26:00,
2013-04-17 03:30:00,72.5,68.4,-100.00,WSW,248,6.0,6.0,87,0.00,,,0.00,meteohub,2013-04-17 08:30:00,
2013-04-17 03:32:00,72.5,68.4,-100.00,SSW,203,4.0,6.0,87,0.00,,,0.00,meteohub,2013-04-17 08:32:00,
2013-04-17 03:34:00,72.7,68.5,-100.00,West,270,2.0,6.0,87,0.00,,,0.00,meteohub,2013-04-17 08:34:00,
2013-04-17 03:38:00,72.5,68.0,-100.00,SSW,203,4.0,6.0,86,0.00,,,0.00,meteohub,2013-04-17 08:38:00,
2013-04-17 03:40:00,72.5,68.0,-100.00,SSW,203,4.0,6.0,86,0.00,,,0.00,meteohub,2013-04-17 08:40:00,
2013-04-17 03:42:00,72.7,68.2,-100.00,SSW,203,1.0,6.0,86,0.00,,,0.00,meteohub,2013-04-17 08:42:00,
2013-04-17 03:44:00,72.7,68.2,-100.00,East,90,1.0,6.0,86,0.00,,,0.00,meteohub,2013-04-17 08:44:00,
2013-04-17 03:47:00,72.7,68.2,-100.00,SE,135,2.0,6.0,86,0.00,,,0.00,meteohub,2013-04-17 08:47:00,
2013-04-17 03:48:00,72.7,68.2,-100.00,SE,135,2.0,6.0,86,0.00,,,0.00,meteohub,2013-04-17 08:48:00,
2013-04-17 03:52:00,72.7,68.2,-100.00,ESE,113,5.0,5.0,86,0.00,,,0.00,meteohub,2013-04-17 08:52:00,
2013-04-17 03:54:00,72.7,68.2,-100.00,South,180,3.0,4.0,86,0.00,,,0.00,meteohub,2013-04-17 08:54:00,
2013-04-17 03:56:00,72.7,68.2,-100.00,ESE,113,1.0,7.0,86,0.00,,,0.00,meteohub,2013-04-17 08:56:00,
2013-04-17 03:58:00,72.9,68.4,-100.00,South,180,4.0,7.0,86,0.00,,,0.00,meteohub,2013-04-17 08:58:00,
2013-04-17 04:00:00,72.9,68.4,-100.00,South,180,8.0,8.0,86,0.00,,,0.00,meteohub,2013-04-17 09:00:00,
2013-04-17 04:02:00,72.9,68.4,-100.00,South,180,8.0,8.0,86,0.00,,,0.00,meteohub,2013-04-17 09:02:00,
2013-04-17 04:04:00,72.9,68.4,-100.00,South,180,8.0,8.0,86,0.00,,,0.00,meteohub,2013-04-17 09:04:00,
2013-04-17 04:10:00,72.9,68.4,-100.00,SE,135,1.0,8.0,86,0.00,,,0.00,meteohub,2013-04-17 09:10:00,
2013-04-17 04:12:00,72.9,68.0,-100.00,ESE,113,11.0,11.0,85,0.00,,,0.00,meteohub,2013-04-17 09:12:00,
2013-04-17 04:14:00,72.9,68.0,-100.00,ESE,113,11.0,11.0,85,0.00,,,0.00,meteohub,2013-04-17 09:14:00,
2013-04-17 04:17:00,72.9,68.0,-100.00,NE,45,9.0,11.0,85,0.00,,,0.00,meteohub,2013-04-17 09:17:00,
2013-04-17 04:18:00,72.9,68.0,-100.00,NE,45,9.0,11.0,85,0.00,,,0.00,meteohub,2013-04-17 09:18:00,
2013-04-17 04:20:00,72.9,68.0,-100.00,South,180,9.0,11.0,85,0.00,,,0.00,meteohub,2013-04-17 09:20:00,
2013-04-17 04:22:00,73.0,68.2,-100.00,East,90,0.0,11.0,85,0.00,,,0.00,meteohub,2013-04-17 09:22:00,
2013-04-17 04:24:00,73.0,68.2,-100.00,ENE,68,2.0,11.0,85,0.00,,,0.00,meteohub,2013-04-17 09:24:00,
2013-04-17 04:26:00,73.0,68.2,-100.00,SSW,203,7.0,11.0,85,0.00,,,0.00,meteohub,2013-04-17 09:26:00,
2013-04-17 04:30:00,72.9,68.0,-100.00,SSW,203,2.0,9.0,85,0.00,,,0.00,meteohub,2013-04-17 09:30:00,
2013-04-17 04:32:00,72.9,68.0,-100.00,SSE,158,0.0,9.0,85,0.00,,,0.00,meteohub,2013-04-17 09:32:00,
2013-04-17 04:38:00,73.0,68.2,-100.00,SSW,203,4.0,9.0,85,0.00,,,0.00,meteohub,2013-04-17 09:38:00,
2013-04-17 04:40:00,73.0,68.2,-100.00,SSE,158,3.0,8.0,85,0.00,,,0.00,meteohub,2013-04-17 09:40:00,
2013-04-17 04:44:00,73.0,68.2,-100.00,SSE,158,3.0,8.0,85,0.00,,,0.00,meteohub,2013-04-17 09:44:00,
2013-04-17 04:46:00,73.0,68.2,-100.00,East,90,3.0,8.0,85,0.00,,,0.00,meteohub,2013-04-17 09:46:00,
2013-04-17 04:47:00,73.0,68.2,-100.00,East,90,3.0,8.0,85,0.00,,,0.00,meteohub,2013-04-17 09:47:00,
2013-04-17 04:48:00,73.0,68.2,-100.00,South,180,3.0,8.0,85,0.00,,,0.00,meteohub,2013-04-17 09:48:00,
2013-04-17 04:52:00,73.0,68.2,-100.00,South,180,2.0,8.0,85,0.00,,,0.00,meteohub,2013-04-17 09:52:00,
2013-04-17 04:54:00,73.0,68.2,-100.00,South,180,0.0,8.0,85,0.00,,,0.00,meteohub,2013-04-17 09:54:00,
2013-04-17 04:58:00,73.0,68.2,-100.00,ENE,68,2.0,5.0,85,0.00,,,0.00,meteohub,2013-04-17 09:58:00,
2013-04-17 05:02:00,73.0,68.2,-100.00,South,180,3.0,4.0,85,0.00,,,0.00,meteohub,2013-04-17 10:02:00,
2013-04-17 05:10:00,73.0,68.2,-100.00,SE,135,3.0,4.0,85,0.00,,,0.00,meteohub,2013-04-17 10:10:00,
2013-04-17 05:15:00,73.0,68.0,-100.00,NE,45,6.0,6.0,84,0.00,,,0.00,meteohub,2013-04-17 10:15:00,
2013-04-17 05:17:00,73.0,68.0,-100.00,ESE,113,5.0,6.0,84,0.00,,,0.00,meteohub,2013-04-17 10:17:00,
2013-04-17 05:19:00,73.0,68.0,-100.00,ENE,68,5.0,6.0,84,0.00,,,0.00,meteohub,2013-04-17 10:19:00,
2013-04-17 05:21:00,73.0,68.0,-100.00,South,180,4.0,6.0,84,0.00,,,0.00,meteohub,2013-04-17 10:21:00,
2013-04-17 05:23:00,73.0,68.0,-100.00,South,180,4.0,6.0,84,0.00,,,0.00,meteohub,2013-04-17 10:23:00,
2013-04-17 05:25:00,73.0,68.0,-100.00,SW,225,3.0,6.0,84,0.00,,,0.00,meteohub,2013-04-17 10:25:00,
2013-04-17 05:27:00,73.0,68.0,-100.00,SSE,158,2.0,6.0,84,0.00,,,0.00,meteohub,2013-04-17 10:27:00,
2013-04-17 05:29:00,73.0,68.0,-100.00,ESE,113,2.0,6.0,84,0.00,,,0.00,meteohub,2013-04-17 10:29:00,
2013-04-17 05:31:00,73.0,68.0,-100.00,SE,135,5.0,6.0,84,0.00,,,0.00,meteohub,2013-04-17 10:31:00,
2013-04-17 05:33:00,73.0,68.0,-100.00,SSW,203,2.0,6.0,84,0.00,,,0.00,meteohub,2013-04-17 10:33:00,
2013-04-17 05:37:00,73.0,68.0,-100.00,South,180,1.0,5.0,84,0.00,,,0.00,meteohub,2013-04-17 10:37:00,
2013-04-17 05:39:00,73.0,68.0,-100.00,SSW,203,6.0,6.0,84,0.00,,,0.00,meteohub,2013-04-17 10:39:00,
2013-04-17 05:41:00,73.0,68.0,-100.00,South,180,5.0,6.0,84,0.00,,,0.00,meteohub,2013-04-17 10:41:00,
2013-04-17 05:43:00,73.0,68.0,-100.00,ESE,113,2.0,6.0,84,0.00,,,0.00,meteohub,2013-04-17 10:43:00,
2013-04-17 05:47:00,73.0,68.0,-100.00,SSE,158,4.0,6.0,84,0.00,,,0.00,meteohub,2013-04-17 10:47:00,
2013-04-17 05:49:00,73.0,68.0,-100.00,SSE,158,2.0,6.0,84,0.00,,,0.00,meteohub,2013-04-17 10:49:00,
2013-04-17 05:51:00,72.9,67.8,-100.00,SE,135,2.0,6.0,84,0.00,,,0.00,meteohub,2013-04-17 10:51:00,
2013-04-17 05:53:00,72.9,67.8,-100.00,SSE,158,3.0,6.0,84,0.00,,,0.00,meteohub,2013-04-17 10:53:00,
2013-04-17 05:55:00,72.9,67.8,-100.00,South,180,1.0,6.0,84,0.00,,,0.00,meteohub,2013-04-17 10:55:00,
2013-04-17 05:57:00,72.9,67.8,-100.00,South,180,1.0,5.0,84,0.00,,,0.00,meteohub,2013-04-17 10:57:00,
2013-04-17 05:59:00,72.9,67.8,-100.00,SSW,203,3.0,5.0,84,0.00,,,0.00,meteohub,2013-04-17 10:59:00,
2013-04-17 06:03:00,72.9,67.8,-100.00,SSW,203,8.0,8.0,84,0.00,,,0.00,meteohub,2013-04-17 11:03:00,
2013-04-17 06:07:00,72.9,67.5,-100.00,SSW,203,13.0,13.0,83,0.00,,,0.00,meteohub,2013-04-17 11:07:00,
2013-04-17 06:09:00,72.9,67.5,-100.00,SSW,203,12.0,12.0,83,0.00,,,0.00,meteohub,2013-04-17 11:09:00,
2013-04-17 06:11:00,72.7,67.6,-100.00,SSW,203,12.0,13.0,84,0.00,,,0.00,meteohub,2013-04-17 11:11:00,
2013-04-17 06:17:00,72.7,67.6,-100.00,SSE,158,5.0,13.0,84,0.00,,,0.00,meteohub,2013-04-17 11:17:00,
2013-04-17 06:19:00,72.7,67.6,-100.00,NE,45,4.0,13.0,84,0.00,,,0.00,meteohub,2013-04-17 11:19:00,
2013-04-17 06:23:00,72.7,67.3,-100.00,SW,225,2.0,13.0,83,0.00,,,0.00,meteohub,2013-04-17 11:23:00,
2013-04-17 06:27:00,72.7,67.6,-100.00,SSE,158,3.0,12.0,84,0.00,,,0.00,meteohub,2013-04-17 11:27:00,
2013-04-17 06:32:00,72.7,67.6,-100.00,South,180,3.0,5.0,84,0.00,,,0.00,meteohub,2013-04-17 11:32:00,
2013-04-17 06:33:00,72.7,67.6,-100.00,South,180,3.0,5.0,84,0.00,,,0.00,meteohub,2013-04-17 11:33:00,
2013-04-17 06:35:00,72.7,67.6,-100.00,ESE,113,3.0,5.0,84,0.00,,,0.00,meteohub,2013-04-17 11:35:00,
2013-04-17 06:37:00,72.7,67.6,-100.00,SSE,158,4.0,5.0,84,0.00,,,0.00,meteohub,2013-04-17 11:37:00,
2013-04-17 06:41:00,72.7,67.6,-100.00,East,90,4.0,5.0,84,0.00,,,0.00,meteohub,2013-04-17 11:41:00,
2013-04-17 06:43:00,72.7,67.6,-100.00,ENE,68,3.0,5.0,84,0.00,,,0.00,meteohub,2013-04-17 11:43:00,
2013-04-17 06:45:00,72.7,67.6,-100.00,SW,225,4.0,4.0,84,0.00,,,0.00,meteohub,2013-04-17 11:45:00,
2013-04-17 06:47:00,72.7,67.6,-100.00,SSE,158,2.0,4.0,84,0.00,,,0.00,meteohub,2013-04-17 11:47:00,
2013-04-17 06:51:00,72.7,67.6,-100.00,SE,135,3.0,4.0,84,0.00,,,0.00,meteohub,2013-04-17 11:51:00,
2013-04-17 06:53:00,72.7,67.3,-100.00,SE,135,6.0,6.0,83,0.00,,,0.00,meteohub,2013-04-17 11:53:00,
2013-04-17 06:57:00,72.7,67.3,-100.00,ESE,113,3.0,4.0,83,0.00,,,0.00,meteohub,2013-04-17 11:57:00,
2013-04-17 06:59:00,72.5,67.1,-100.00,SW,225,3.0,4.0,83,0.00,,,0.00,meteohub,2013-04-17 11:59:00,
2013-04-17 07:01:00,72.5,67.5,-100.00,SE,135,4.0,6.0,84,0.00,,,0.00,meteohub,2013-04-17 12:01:00,
2013-04-17 07:03:00,72.5,67.5,-100.00,ENE,68,8.0,8.0,84,0.00,,,0.00,meteohub,2013-04-17 12:03:00,
2013-04-17 07:05:00,72.5,67.5,-100.00,ENE,68,8.0,8.0,84,0.00,,,0.00,meteohub,2013-04-17 12:05:00,
2013-04-17 07:09:00,72.5,67.5,-100.00,SSE,158,3.0,6.0,84,0.00,,,0.00,meteohub,2013-04-17 12:09:00,
2013-04-17 07:11:00,72.5,67.5,-100.00,South,180,2.0,8.0,84,0.00,,,0.00,meteohub,2013-04-17 12:11:00,
2013-04-17 07:15:00,72.5,67.5,-100.00,SSW,203,4.0,8.0,84,0.00,,,0.00,meteohub,2013-04-17 12:15:00,
2013-04-17 07:17:00,72.5,67.5,-100.00,NE,45,3.0,8.0,84,0.00,,,0.00,meteohub,2013-04-17 12:17:00,
2013-04-17 07:21:00,72.3,67.3,-100.00,SSE,158,2.0,8.0,84,0.00,,,0.00,meteohub,2013-04-17 12:21:00,
2013-04-17 07:25:00,72.3,67.3,-100.00,SE,135,1.0,7.0,84,0.00,,,0.00,meteohub,2013-04-17 12:25:00,
2013-04-17 07:27:00,72.3,67.3,-100.00,SE,135,3.0,7.0,84,0.00,,,0.00,meteohub,2013-04-17 12:27:00,
2013-04-17 07:29:00,72.3,67.3,-100.00,South,180,9.0,9.0,84,0.00,,,0.00,meteohub,2013-04-17 12:29:00,
2013-04-17 07:31:00,72.3,67.3,-100.00,SE,135,3.0,6.0,84,0.00,,,0.00,meteohub,2013-04-17 12:31:00,
2013-04-17 07:32:00,72.3,67.3,-100.00,SE,135,3.0,6.0,84,0.00,,,0.00,meteohub,2013-04-17 12:32:00,
2013-04-17 07:33:00,72.3,67.3,-100.00,SSE,158,1.0,6.0,84,0.00,,,0.00,meteohub,2013-04-17 12:33:00,
2013-04-17 07:35:00,72.3,67.3,-100.00,SSE,158,5.0,9.0,84,0.00,,,0.00,meteohub,2013-04-17 12:35:00,
2013-04-17 07:37:00,72.3,67.3,-100.00,WSW,248,4.0,9.0,84,0.00,,,0.00,meteohub,2013-04-17 12:37:00,
2013-04-17 07:41:00,72.3,67.3,-100.00,SW,225,6.0,9.0,84,0.00,,,0.00,meteohub,2013-04-17 12:41:00,
2013-04-17 07:43:00,72.3,67.3,-100.00,SSE,158,4.0,9.0,84,0.00,,,0.00,meteohub,2013-04-17 12:43:00,
2013-04-17 07:47:00,72.3,67.3,-100.00,SSE,158,4.0,9.0,84,0.00,,,0.00,meteohub,2013-04-17 12:47:00,
2013-04-17 07:50:00,72.3,67.3,-100.00,SSE,158,0.0,9.0,84,0.00,,,0.00,meteohub,2013-04-17 12:50:00,
2013-04-17 07:52:00,72.1,67.1,-100.00,SSE,158,0.0,6.0,84,0.00,,,0.00,meteohub,2013-04-17 12:52:00,
2013-04-17 07:56:00,72.1,67.1,-100.00,SSE,158,3.0,6.0,84,0.00,,,0.00,meteohub,2013-04-17 12:56:00,
2013-04-17 07:58:00,72.1,67.5,-100.00,SE,135,1.0,6.0,85,0.00,,,0.00,meteohub,2013-04-17 12:58:00,
2013-04-17 08:02:00,72.0,67.3,-100.00,ESE,113,3.0,4.0,85,0.00,,,0.00,meteohub,2013-04-17 13:02:00,
2013-04-17 08:04:00,72.1,67.5,-100.00,SSE,158,2.0,4.0,85,0.00,,,0.00,meteohub,2013-04-17 13:04:00,
2013-04-17 08:06:00,72.0,67.3,-100.00,SSW,203,6.0,6.0,85,0.00,,,0.00,meteohub,2013-04-17 13:06:00,
2013-04-17 08:08:00,72.0,67.3,-100.00,SSW,203,6.0,6.0,85,0.00,,,0.00,meteohub,2013-04-17 13:08:00,
2013-04-17 08:10:00,72.0,67.3,-100.00,South,180,4.0,6.0,85,0.00,,,0.00,meteohub,2013-04-17 13:10:00,
2013-04-17 08:14:00,72.0,67.3,-100.00,SW,225,3.0,6.0,85,0.00,,,0.00,meteohub,2013-04-17 13:14:00,
2013-04-17 08:16:00,72.0,67.3,-100.00,SE,135,3.0,6.0,85,0.00,,,0.00,meteohub,2013-04-17 13:16:00,
2013-04-17 08:17:00,71.8,67.1,-100.00,SSE,158,7.0,7.0,85,0.00,,,0.00,meteohub,2013-04-17 13:17:00,
2013-04-17 08:20:00,71.8,67.1,-100.00,SSW,203,3.0,6.0,85,0.00,,,0.00,meteohub,2013-04-17 13:20:00,
2013-04-17 08:22:00,71.8,67.1,-100.00,SE,135,4.0,7.0,85,0.00,,,0.00,meteohub,2013-04-17 13:22:00,
2013-04-17 08:26:00,71.8,67.1,-100.00,East,90,2.0,7.0,85,0.00,,,0.00,meteohub,2013-04-17 13:26:00,
2013-04-17 08:30:00,71.6,66.9,-100.00,West,270,5.0,7.0,85,0.00,,,0.00,meteohub,2013-04-17 13:30:00,
2013-04-17 08:32:00,71.4,67.1,-100.00,East,90,8.0,8.0,86,0.00,,,0.00,meteohub,2013-04-17 13:32:00,
2013-04-17 08:36:00,71.4,67.1,-100.00,SSW,203,3.0,8.0,86,0.00,,,0.00,meteohub,2013-04-17 13:36:00,
2013-04-17 08:38:00,71.4,67.1,-100.00,SSW,203,2.0,8.0,86,0.00,,,0.00,meteohub,2013-04-17 13:38:00,
2013-04-17 08:40:00,71.4,67.1,-100.00,SE,135,2.0,8.0,86,0.00,,,0.00,meteohub,2013-04-17 13:40:00,
2013-04-17 08:46:00,71.2,66.9,-100.00,SE,135,2.0,8.0,86,0.00,,,0.00,meteohub,2013-04-17 13:46:00,
2013-04-17 08:50:00,71.2,66.9,-100.00,SSE,158,3.0,6.0,86,0.00,,,0.00,meteohub,2013-04-17 13:50:00,
2013-04-17 08:52:00,71.2,66.9,-100.00,SSW,203,1.0,6.0,86,0.00,,,0.00,meteohub,2013-04-17 13:52:00,
2013-04-17 08:54:00,71.2,66.9,-100.00,SE,135,3.0,6.0,86,0.00,,,0.00,meteohub,2013-04-17 13:54:00,
2013-04-17 08:56:00,71.2,66.9,-100.00,SSW,203,9.0,9.0,86,0.00,,,0.00,meteohub,2013-04-17 13:56:00,
2013-04-17 08:58:00,71.2,66.9,-100.00,South,180,4.0,6.0,86,0.00,,,0.00,meteohub,2013-04-17 13:58:00,
2013-04-17 09:00:00,71.2,66.9,-100.00,South,180,6.0,9.0,86,0.00,,,0.00,meteohub,2013-04-17 14:00:00,
2013-04-17 09:02:00,71.1,66.9,-100.00,West,270,7.0,9.0,87,0.00,,,0.00,meteohub,2013-04-17 14:02:00,
2013-04-17 09:04:00,71.2,67.1,-100.00,SE,135,3.0,9.0,87,0.00,,,0.00,meteohub,2013-04-17 14:04:00,
2013-04-17 09:10:00,71.2,66.9,-100.00,SSW,203,3.0,9.0,86,0.00,,,0.00,meteohub,2013-04-17 14:10:00,
2013-04-17 09:12:00,71.2,67.1,-100.00,SSW,203,3.0,9.0,87,0.00,,,0.00,meteohub,2013-04-17 14:12:00,
2013-04-17 09:16:00,71.2,67.1,-100.00,ESE,113,2.0,7.0,87,0.00,,,0.00,meteohub,2013-04-17 14:16:00,
2013-04-17 09:18:00,71.2,67.1,-100.00,South,180,3.0,7.0,87,0.00,,,0.00,meteohub,2013-04-17 14:18:00,
2013-04-17 09:24:00,71.2,67.1,-100.00,East,90,6.0,6.0,87,0.00,,,0.00,meteohub,2013-04-17 14:24:00,
2013-04-17 09:26:00,71.2,67.1,-100.00,NE,45,1.0,4.0,87,0.00,,,0.00,meteohub,2013-04-17 14:26:00,
2013-04-17 09:28:00,71.2,67.1,-100.00,SE,135,2.0,4.0,87,0.00,,,0.00,meteohub,2013-04-17 14:28:00,
2013-04-17 09:30:00,71.2,67.1,-100.00,SSE,158,2.0,6.0,87,0.00,,,0.00,meteohub,2013-04-17 14:30:00,
2013-04-17 09:33:00,71.4,67.3,-100.00,SSE,158,4.0,6.0,87,0.00,,,0.00,meteohub,2013-04-17 14:33:00,
2013-04-17 09:37:00,71.2,67.1,-100.00,SE,135,3.0,6.0,87,0.00,,,0.00,meteohub,2013-04-17 14:37:00,
2013-04-17 09:41:00,71.2,67.1,-100.00,SW,225,4.0,4.0,87,0.00,,,0.00,meteohub,2013-04-17 14:41:00,
2013-04-17 09:43:00,71.2,67.1,-100.00,SW,225,6.0,6.0,87,0.00,,,0.00,meteohub,2013-04-17 14:43:00,
2013-04-17 09:45:00,71.4,67.3,-100.00,SE,135,3.0,4.0,87,0.00,,,0.00,meteohub,2013-04-17 14:45:00,
2013-04-17 09:47:00,71.4,67.3,-100.00,SSW,203,9.0,9.0,87,0.00,,,0.00,meteohub,2013-04-17 14:47:00,
2013-04-17 09:51:00,71.4,67.3,-100.00,ESE,113,3.0,9.0,87,0.00,,,0.00,meteohub,2013-04-17 14:51:00,
2013-04-17 09:53:00,71.4,67.3,-100.00,NE,45,0.0,9.0,87,0.00,,,0.00,meteohub,2013-04-17 14:53:00,
2013-04-17 09:57:00,71.2,67.1,-100.00,SE,135,1.0,9.0,87,0.00,,,0.00,meteohub,2013-04-17 14:57:00,
2013-04-17 09:59:00,71.2,67.1,-100.00,SSW,203,4.0,9.0,87,0.00,,,0.00,meteohub,2013-04-17 14:59:00,
2013-04-17 10:01:00,71.2,67.1,-100.00,South,180,5.0,9.0,87,0.00,,,0.00,meteohub,2013-04-17 15:01:00,
2013-04-17 10:02:00,71.2,67.1,-100.00,South,180,5.0,9.0,87,0.00,,,0.00,meteohub,2013-04-17 15:02:00,
2013-04-17 10:05:00,71.2,66.9,-100.00,ENE,68,4.0,5.0,86,0.00,,,0.00,meteohub,2013-04-17 15:05:00,
2013-04-17 10:07:00,71.2,66.9,-100.00,SSE,158,2.0,5.0,86,0.00,,,0.00,meteohub,2013-04-17 15:07:00,
2013-04-17 10:11:00,71.2,66.9,-100.00,NE,45,4.0,5.0,86,0.00,,,0.00,meteohub,2013-04-17 15:11:00,
2013-04-17 10:13:00,71.2,66.9,-100.00,South,180,4.0,5.0,86,0.00,,,0.00,meteohub,2013-04-17 15:13:00,
2013-04-17 10:15:00,71.2,66.9,-100.00,South,180,4.0,5.0,86,0.00,,,0.00,meteohub,2013-04-17 15:15:00,
2013-04-17 10:17:00,71.4,67.1,-100.00,West,270,2.0,5.0,86,0.00,,,0.00,meteohub,2013-04-17 15:17:00,
2013-04-17 10:19:00,71.2,66.9,-100.00,SE,135,0.0,5.0,86,0.00,,,0.00,meteohub,2013-04-17 15:19:00,
2013-04-17 10:21:00,71.2,66.6,-100.00,East,90,3.0,4.0,85,0.00,,,0.00,meteohub,2013-04-17 15:21:00,
2013-04-17 10:23:00,71.2,66.6,-100.00,South,180,2.0,4.0,85,0.00,,,0.00,meteohub,2013-04-17 15:23:00,
2013-04-17 10:25:00,71.4,66.7,-100.00,SE,135,2.0,4.0,85,0.00,,,0.00,meteohub,2013-04-17 15:25:00,
2013-04-17 10:27:00,71.4,66.7,-100.00,South,180,7.0,7.0,85,0.00,,,0.00,meteohub,2013-04-17 15:27:00,
2013-04-17 10:29:00,71.4,66.7,-100.00,WSW,248,0.0,4.0,85,0.00,,,0.00,meteohub,2013-04-17 15:29:00,
2013-04-17 10:32:00,71.4,66.7,-100.00,SSW,203,4.0,7.0,85,0.00,,,0.00,meteohub,2013-04-17 15:32:00,
2013-04-17 10:35:00,71.4,66.7,-100.00,ESE,113,3.0,7.0,85,0.00,,,0.00,meteohub,2013-04-17 15:35:00,
2013-04-17 10:39:00,71.4,66.7,-100.00,SW,225,8.0,8.0,85,0.00,,,0.00,meteohub,2013-04-17 15:39:00,
2013-04-17 10:41:00,71.4,66.7,-100.00,SSW,203,10.0,10.0,85,0.00,,,0.00,meteohub,2013-04-17 15:41:00,
2013-04-17 10:45:00,71.4,66.7,-100.00,East,90,7.0,10.0,85,0.00,,,0.00,meteohub,2013-04-17 15:45:00,
2013-04-17 10:47:00,71.6,66.9,-100.00,SE,135,2.0,10.0,85,0.00,,,0.00,meteohub,2013-04-17 15:47:00,
2013-04-17 10:49:00,71.8,67.1,-100.00,SW,225,4.0,10.0,85,0.00,,,0.00,meteohub,2013-04-17 15:49:00,
2013-04-17 10:53:00,71.8,67.1,-100.00,SE,135,0.0,10.0,85,0.00,,,0.00,meteohub,2013-04-17 15:53:00,
2013-04-17 10:55:00,71.8,67.1,-100.00,South,180,2.0,10.0,85,0.00,,,0.00,meteohub,2013-04-17 15:55:00,
2013-04-17 10:59:00,71.8,67.1,-100.00,ENE,68,4.0,10.0,85,0.00,,,0.00,meteohub,2013-04-17 15:59:00,
2013-04-17 11:01:00,71.8,66.7,-100.00,NE,45,4.0,7.0,84,0.00,,,0.00,meteohub,2013-04-17 16:01:00,
2013-04-17 11:03:00,71.8,66.7,-100.00,South,180,6.0,7.0,84,0.00,,,0.00,meteohub,2013-04-17 16:03:00,
2013-04-17 11:05:00,71.8,66.7,-100.00,South,180,6.0,6.0,84,0.00,,,0.00,meteohub,2013-04-17 16:05:00,
2013-04-17 11:07:00,71.8,66.7,-100.00,ESE,113,4.0,4.0,84,0.00,,,0.00,meteohub,2013-04-17 16:07:00,
2013-04-17 11:09:00,72.0,66.9,-100.00,South,180,5.0,5.0,84,0.00,,,0.00,meteohub,2013-04-17 16:09:00,
2013-04-17 11:11:00,71.8,66.7,-100.00,ESE,113,2.0,6.0,84,0.00,,,0.00,meteohub,2013-04-17 16:11:00,
2013-04-17 11:13:00,71.8,66.7,-100.00,NW,315,1.0,6.0,84,0.00,,,0.00,meteohub,2013-04-17 16:13:00,
2013-04-17 11:15:00,72.0,66.9,-100.00,SSW,203,2.0,6.0,84,0.00,,,0.00,meteohub,2013-04-17 16:15:00,
2013-04-17 11:17:00,71.8,66.7,-100.00,SSE,158,2.0,6.0,84,0.00,,,0.00,meteohub,2013-04-17 16:17:00,
2013-04-17 11:19:00,72.0,67.3,-100.00,South,180,2.0,6.0,85,0.00,,,0.00,meteohub,2013-04-17 16:19:00,
2013-04-17 11:22:00,72.0,67.3,-100.00,SSW,203,2.0,6.0,85,0.00,,,0.00,meteohub,2013-04-17 16:22:00,
2013-04-17 11:26:00,72.0,66.9,-100.00,SSW,203,6.0,6.0,84,0.00,,,0.00,meteohub,2013-04-17 16:26:00,
2013-04-17 11:28:00,72.0,66.9,-100.00,ENE,68,12.0,12.0,84,0.00,,,0.00,meteohub,2013-04-17 16:28:00,
2013-04-17 11:30:00,72.0,66.9,-100.00,South,180,1.0,4.0,84,0.00,,,0.00,meteohub,2013-04-17 16:30:00,
2013-04-17 11:34:00,72.1,67.1,-100.00,SSW,203,6.0,12.0,84,0.00,,,0.00,meteohub,2013-04-17 16:34:00,
2013-04-17 11:36:00,72.0,66.9,-100.00,SE,135,3.0,12.0,84,0.00,,,0.00,meteohub,2013-04-17 16:36:00,
2013-04-17 11:40:00,72.1,67.1,-100.00,SE,135,1.0,12.0,84,0.00,,,0.00,meteohub,2013-04-17 16:40:00,
2013-04-17 11:42:00,72.1,67.1,-100.00,SE,135,1.0,12.0,84,0.00,,,0.00,meteohub,2013-04-17 16:42:00,
2013-04-17 11:44:00,72.1,67.1,-100.00,South,180,4.0,12.0,84,0.00,,,0.00,meteohub,2013-04-17 16:44:00,
2013-04-17 11:50:00,72.3,67.3,-100.00,WSW,248,3.0,10.0,84,0.00,,,0.00,meteohub,2013-04-17 16:50:00,
2013-04-17 11:52:00,72.3,67.3,-100.00,WSW,248,4.0,7.0,84,0.00,,,0.00,meteohub,2013-04-17 16:52:00,
2013-04-17 11:54:00,72.3,67.3,-100.00,SSW,203,2.0,7.0,84,0.00,,,0.00,meteohub,2013-04-17 16:54:00,
2013-04-17 11:56:00,72.5,67.5,-100.00,ENE,68,3.0,4.0,84,0.00,,,0.00,meteohub,2013-04-17 16:56:00,
2013-04-17 12:00:00,72.5,67.5,-100.00,SSW,203,1.0,4.0,84,0.00,,,0.00,meteohub,2013-04-17 17:00:00,
2013-04-17 12:02:00,72.5,67.5,-100.00,West,270,3.0,4.0,84,0.00,,,0.00,meteohub,2013-04-17 17:02:00,
2013-04-17 12:04:00,72.7,67.6,-100.00,SSW,203,12.0,12.0,84,0.00,,,0.00,meteohub,2013-04-17 17:04:00,
2013-04-17 12:06:00,72.7,67.6,-100.00,ENE,68,3.0,12.0,84,0.00,,,0.00,meteohub,2013-04-17 17:06:00,
2013-04-17 12:08:00,72.7,67.6,-100.00,SSW,203,6.0,12.0,84,0.00,,,0.00,meteohub,2013-04-17 17:08:00,
2013-04-17 12:12:00,72.7,67.6,-100.00,South,180,4.0,12.0,84,0.00,,,0.00,meteohub,2013-04-17 17:12:00,
2013-04-17 12:14:00,72.7,67.6,-100.00,SSE,158,2.0,12.0,84,0.00,,,0.00,meteohub,2013-04-17 17:14:00,
2013-04-17 12:18:00,72.7,67.6,-100.00,SE,135,2.0,12.0,84,0.00,,,0.00,meteohub,2013-04-17 17:18:00,
2013-04-17 12:20:00,72.7,67.6,-100.00,SSW,203,4.0,12.0,84,0.00,,,0.00,meteohub,2013-04-17 17:20:00,
2013-04-17 12:24:00,72.7,67.6,-100.00,SSW,203,2.0,12.0,84,0.00,,,0.00,meteohub,2013-04-17 17:24:00,
2013-04-17 12:26:00,72.7,67.6,-100.00,ESE,113,5.0,5.0,84,0.00,,,0.00,meteohub,2013-04-17 17:26:00,
2013-04-17 12:30:00,72.7,67.6,-100.00,SE,135,2.0,5.0,84,0.00,,,0.00,meteohub,2013-04-17 17:30:00,
2013-04-17 12:32:00,72.7,67.6,-100.00,SSW,203,0.0,5.0,84,0.00,,,0.00,meteohub,2013-04-17 17:32:00,
2013-04-17 12:34:00,72.7,67.6,-100.00,South,180,1.0,5.0,84,0.00,,,0.00,meteohub,2013-04-17 17:34:00,
2013-04-17 12:36:00,72.7,67.6,-100.00,SSW,203,6.0,6.0,84,0.00,,,0.00,meteohub,2013-04-17 17:36:00,
2013-04-17 12:38:00,72.7,67.6,-100.00,East,90,0.0,5.0,84,0.00,,,0.00,meteohub,2013-04-17 17:38:00,
2013-04-17 12:42:00,72.7,67.6,-100.00,SE,135,1.0,6.0,84,0.00,,,0.00,meteohub,2013-04-17 17:42:00,
2013-04-17 12:44:00,72.9,67.5,-100.00,NE,45,9.0,9.0,83,0.00,,,0.00,meteohub,2013-04-17 17:44:00,
2013-04-17 12:46:00,72.7,67.3,-100.00,SSW,203,8.0,8.0,83,0.00,,,0.00,meteohub,2013-04-17 17:46:00,
2013-04-17 12:49:00,72.7,67.3,-100.00,South,180,4.0,6.0,83,0.00,,,0.00,meteohub,2013-04-17 17:49:00,
2013-04-17 12:51:00,72.7,67.3,-100.00,SE,135,0.0,9.0,83,0.00,,,0.00,meteohub,2013-04-17 17:51:00,
2013-04-17 12:53:00,72.7,67.3,-100.00,ESE,113,4.0,9.0,83,0.00,,,0.00,meteohub,2013-04-17 17:53:00,
2013-04-17 12:55:00,72.7,67.3,-100.00,ESE,113,4.0,9.0,83,0.00,,,0.00,meteohub,2013-04-17 17:55:00,
2013-04-17 12:59:00,72.7,67.3,-100.00,SSW,203,2.0,9.0,83,0.00,,,0.00,meteohub,2013-04-17 17:59:00,
2013-04-17 13:02:00,72.7,67.6,-100.00,SSW,203,3.0,9.0,84,0.00,,,0.00,meteohub,2013-04-17 18:02:00,
2013-04-17 13:07:00,72.7,67.6,-100.00,SSE,158,0.0,7.0,84,0.00,,,0.00,meteohub,2013-04-17 18:07:00,
2013-04-17 13:09:00,72.7,67.6,-100.00,SW,225,2.0,7.0,84,0.00,,,0.00,meteohub,2013-04-17 18:09:00,
2013-04-17 13:13:00,72.7,67.6,-100.00,SW,225,3.0,7.0,84,0.00,,,0.00,meteohub,2013-04-17 18:13:00,
2013-04-17 13:17:00,72.7,67.6,-100.00,ESE,113,2.0,7.0,84,0.00,,,0.00,meteohub,2013-04-17 18:17:00,
2013-04-17 13:19:00,72.7,67.6,-100.00,NE,45,2.0,7.0,84,0.00,,,0.00,meteohub,2013-04-17 18:19:00,
2013-04-17 13:23:00,72.5,67.5,-100.00,SSW,203,2.0,4.0,84,0.00,,,0.00,meteohub,2013-04-17 18:23:00,
2013-04-17 13:27:00,72.5,67.5,-100.00,SE,135,3.0,4.0,84,0.00,,,0.00,meteohub,2013-04-17 18:27:00,
2013-04-17 13:29:00,72.5,67.5,-100.00,SE,135,3.0,4.0,84,0.00,,,0.00,meteohub,2013-04-17 18:29:00,
2013-04-17 13:32:00,72.5,67.5,-100.00,SSE,158,1.0,4.0,84,0.00,,,0.00,meteohub,2013-04-17 18:32:00,
2013-04-17 13:33:00,72.5,67.5,-100.00,SSE,158,1.0,4.0,84,0.00,,,0.00,meteohub,2013-04-17 18:33:00,
2013-04-17 13:35:00,72.5,67.5,-100.00,South,180,2.0,4.0,84,0.00,,,0.00,meteohub,2013-04-17 18:35:00,
2013-04-17 13:37:00,72.5,67.5,-100.00,SSW,203,4.0,4.0,84,0.00,,,0.00,meteohub,2013-04-17 18:37:00,
2013-04-17 13:43:00,72.3,67.6,-100.00,WSW,248,2.0,4.0,85,0.00,,,0.00,meteohub,2013-04-17 18:43:00,
2013-04-17 13:47:00,72.3,67.6,-100.00,SW,225,5.0,5.0,85,0.00,,,0.00,meteohub,2013-04-17 18:47:00,
2013-04-17 13:49:00,72.5,67.5,-100.00,SE,135,1.0,4.0,84,0.00,,,0.00,meteohub,2013-04-17 18:49:00,
2013-04-17 13:55:00,72.5,67.5,-100.00,SE,135,3.0,6.0,84,0.00,,,0.00,meteohub,2013-04-17 18:55:00,
2013-04-17 13:57:00,72.5,67.5,-100.00,SSE,158,2.0,6.0,84,0.00,,,0.00,meteohub,2013-04-17 18:57:00,
2013-04-17 14:01:00,72.5,67.5,-100.00,South,180,4.0,6.0,84,0.00,,,0.00,meteohub,2013-04-17 19:01:00,
2013-04-17 14:02:00,72.5,67.5,-100.00,South,180,4.0,6.0,84,0.00,,,0.00,meteohub,2013-04-17 19:02:00,
2013-04-17 14:03:00,72.7,67.6,-100.00,SE,135,4.0,6.0,84,0.00,,,0.00,meteohub,2013-04-17 19:03:00,
2013-04-17 14:07:00,72.7,67.6,-100.00,South,180,7.0,7.0,84,0.00,,,0.00,meteohub,2013-04-17 19:07:00,
2013-04-17 14:09:00,72.7,67.6,-100.00,SSE,158,3.0,6.0,84,0.00,,,0.00,meteohub,2013-04-17 19:09:00,
2013-04-17 14:11:00,72.7,67.6,-100.00,South,180,3.0,7.0,84,0.00,,,0.00,meteohub,2013-04-17 19:11:00,
2013-04-17 14:15:00,72.9,67.8,-100.00,NE,45,3.0,7.0,84,0.00,,,0.00,meteohub,2013-04-17 19:15:00,
2013-04-17 14:17:00,73.0,68.0,-100.00,SE,135,1.0,7.0,84,0.00,,,0.00,meteohub,2013-04-17 19:17:00,
2013-04-17 14:23:00,73.2,68.2,-100.00,SW,225,12.0,12.0,84,0.00,,,0.00,meteohub,2013-04-17 19:23:00,
2013-04-17 14:25:00,73.4,68.2,-100.00,NNE,23,4.0,4.0,84,0.00,,,0.00,meteohub,2013-04-17 19:25:00,
2013-04-17 14:27:00,73.6,68.2,-100.00,SSE,158,5.0,5.0,83,0.00,,,0.00,meteohub,2013-04-17 19:27:00,
2013-04-17 14:29:00,73.6,68.2,-100.00,SSE,158,4.0,4.0,83,0.00,,,0.00,meteohub,2013-04-17 19:29:00,
2013-04-17 14:31:00,73.8,68.4,-100.00,SSW,203,6.0,12.0,83,0.00,,,0.00,meteohub,2013-04-17 19:31:00,
2013-04-17 14:33:00,73.9,68.4,-100.00,SSW,203,4.0,12.0,83,0.00,,,0.00,meteohub,2013-04-17 19:33:00,
2013-04-17 14:35:00,74.1,68.2,-100.00,ESE,113,4.0,12.0,82,0.00,,,0.00,meteohub,2013-04-17 19:35:00,
2013-04-17 14:37:00,74.1,68.2,-100.00,South,180,8.0,12.0,82,0.00,,,0.00,meteohub,2013-04-17 19:37:00,
2013-04-17 14:39:00,74.1,68.2,-100.00,South,180,8.0,12.0,82,0.00,,,0.00,meteohub,2013-04-17 19:39:00,
2013-04-17 14:41:00,74.5,68.5,-100.00,SW,225,3.0,8.0,82,0.00,,,0.00,meteohub,2013-04-17 19:41:00,
2013-04-17 14:43:00,75.0,68.7,-100.00,NE,45,1.0,8.0,81,0.00,,,0.00,meteohub,2013-04-17 19:43:00,
2013-04-17 14:45:00,75.2,68.9,-100.00,NE,45,1.0,8.0,81,0.00,,,0.00,meteohub,2013-04-17 19:45:00,
2013-04-17 14:47:00,75.6,68.9,-100.00,SSW,203,9.0,9.0,80,0.00,,,0.00,meteohub,2013-04-17 19:47:00,
2013-04-17 14:49:00,75.7,68.7,-100.00,East,90,7.0,8.0,79,0.00,,,0.00,meteohub,2013-04-17 19:49:00,
2013-04-17 14:51:00,75.9,68.9,-100.00,ESE,113,5.0,9.0,79,0.00,,,0.00,meteohub,2013-04-17 19:51:00,
2013-04-17 14:53:00,76.1,68.7,-100.00,South,180,4.0,9.0,78,0.00,,,0.00,meteohub,2013-04-17 19:53:00,
2013-04-17 14:59:00,76.5,68.7,-100.00,South,180,5.0,9.0,77,0.00,,,0.00,meteohub,2013-04-17 19:59:00,
2013-04-17 15:01:00,76.5,68.7,-100.00,NE,45,4.0,9.0,77,0.00,,,0.00,meteohub,2013-04-17 20:01:00,
2013-04-17 15:02:00,76.5,68.7,-100.00,NE,45,4.0,9.0,77,0.00,,,0.00,meteohub,2013-04-17 20:02:00,
2013-04-17 15:03:00,76.6,68.9,-100.00,SSE,158,4.0,9.0,77,0.00,,,0.00,meteohub,2013-04-17 20:03:00,
2013-04-17 15:06:00,76.6,68.9,-100.00,SSW,203,6.0,7.0,77,0.00,,,0.00,meteohub,2013-04-17 20:06:00,
2013-04-17 15:10:00,76.8,68.7,-100.00,ENE,68,10.0,10.0,76,0.00,,,0.00,meteohub,2013-04-17 20:10:00,
2013-04-17 15:12:00,76.8,68.7,-100.00,ENE,68,10.0,10.0,76,0.00,,,0.00,meteohub,2013-04-17 20:12:00,
2013-04-17 15:16:00,77.4,69.3,-100.00,ESE,113,2.0,10.0,76,0.00,,,0.00,meteohub,2013-04-17 20:16:00,
2013-04-17 15:17:00,77.4,68.9,-100.00,North,0,4.0,10.0,75,0.00,,,0.00,meteohub,2013-04-17 20:17:00,
2013-04-17 15:20:00,77.5,68.9,-100.00,SE,135,0.0,10.0,75,0.00,,,0.00,meteohub,2013-04-17 20:20:00,
2013-04-17 15:22:00,77.5,68.5,-100.00,SE,135,2.0,10.0,74,0.00,,,0.00,meteohub,2013-04-17 20:22:00,
2013-04-17 15:24:00,77.7,68.7,-100.00,SE,135,2.0,10.0,74,0.00,,,0.00,meteohub,2013-04-17 20:24:00,
2013-04-17 15:28:00,77.9,68.9,-100.00,ENE,68,11.0,11.0,74,0.00,,,0.00,meteohub,2013-04-17 20:28:00,
2013-04-17 15:30:00,77.7,68.4,-100.00,SW,225,6.0,10.0,73,0.00,,,0.00,meteohub,2013-04-17 20:30:00,
2013-04-17 15:32:00,77.7,68.4,-100.00,South,180,2.0,11.0,73,0.00,,,0.00,meteohub,2013-04-17 20:32:00,
2013-04-17 15:36:00,77.9,68.9,-100.00,SE,135,10.0,11.0,74,0.00,,,0.00,meteohub,2013-04-17 20:36:00,
2013-04-17 15:40:00,78.1,68.4,-100.00,South,180,4.0,11.0,72,0.00,,,0.00,meteohub,2013-04-17 20:40:00,
2013-04-17 15:42:00,78.4,68.7,-100.00,SW,225,7.0,11.0,72,0.00,,,0.00,meteohub,2013-04-17 20:42:00,
2013-04-17 15:44:00,78.4,68.7,-100.00,SW,225,6.0,11.0,72,0.00,,,0.00,meteohub,2013-04-17 20:44:00,
2013-04-17 15:48:00,78.4,68.7,-100.00,WSW,248,9.0,10.0,72,0.00,,,0.00,meteohub,2013-04-17 20:48:00,
2013-04-17 15:50:00,78.4,68.7,-100.00,ESE,113,1.0,10.0,72,0.00,,,0.00,meteohub,2013-04-17 20:50:00,
2013-04-17 15:52:00,78.4,68.7,-100.00,SSE,158,1.0,10.0,72,0.00,,,0.00,meteohub,2013-04-17 20:52:00,
2013-04-17 15:56:00,78.6,68.4,-100.00,SSW,203,3.0,9.0,71,0.00,,,0.00,meteohub,2013-04-17 20:56:00,
2013-04-17 15:58:00,78.4,68.2,-100.00,South,180,3.0,9.0,71,0.00,,,0.00,meteohub,2013-04-17 20:58:00,
2013-04-17 16:02:00,78.4,68.2,-100.00,SSW,203,2.0,9.0,71,0.00,,,0.00,meteohub,2013-04-17 21:02:00,
2013-04-17 16:06:00,78.6,68.4,-100.00,SSW,203,3.0,4.0,71,0.00,,,0.00,meteohub,2013-04-17 21:06:00,
2013-04-17 16:08:00,78.6,68.4,-100.00,SSW,203,1.0,4.0,71,0.00,,,0.00,meteohub,2013-04-17 21:08:00,
2013-04-17 16:10:00,78.6,68.4,-100.00,South,180,1.0,4.0,71,0.00,,,0.00,meteohub,2013-04-17 21:10:00,
2013-04-17 16:14:00,78.8,68.5,-100.00,SE,135,3.0,4.0,71,0.00,,,0.00,meteohub,2013-04-17 21:14:00,
2013-04-17 16:17:00,78.8,68.5,-100.00,SSE,158,1.0,4.0,71,0.00,,,0.00,meteohub,2013-04-17 21:17:00,
2013-04-17 16:20:00,78.8,68.2,-100.00,WSW,248,5.0,5.0,70,0.00,,,0.00,meteohub,2013-04-17 21:20:00,
2013-04-17 16:24:00,79.0,68.4,-100.00,WSW,248,3.0,5.0,70,0.00,,,0.00,meteohub,2013-04-17 21:24:00,
2013-04-17 16:26:00,79.0,68.4,-100.00,East,90,1.0,6.0,70,0.00,,,0.00,meteohub,2013-04-17 21:26:00,
2013-04-17 16:32:00,79.2,68.2,-100.00,ESE,113,5.0,6.0,69,0.00,,,0.00,meteohub,2013-04-17 21:32:00,
2013-04-17 16:36:00,79.3,68.4,-100.00,ENE,68,7.0,9.0,69,0.00,,,0.00,meteohub,2013-04-17 21:36:00,
2013-04-17 16:38:00,79.3,68.4,-100.00,ESE,113,1.0,9.0,69,0.00,,,0.00,meteohub,2013-04-17 21:38:00,
2013-04-17 16:40:00,79.3,68.4,-100.00,SSW,203,4.0,9.0,69,0.00,,,0.00,meteohub,2013-04-17 21:40:00,
2013-04-17 16:44:00,79.0,68.4,-100.00,SSE,158,4.0,9.0,70,0.00,,,0.00,meteohub,2013-04-17 21:44:00,
2013-04-17 16:46:00,79.0,68.4,-100.00,SSE,158,4.0,9.0,70,0.00,,,0.00,meteohub,2013-04-17 21:46:00,
2013-04-17 16:50:00,79.0,68.4,-100.00,SE,135,7.0,7.0,70,0.00,,,0.00,meteohub,2013-04-17 21:50:00,
2013-04-17 16:54:00,79.0,68.4,-100.00,ESE,113,6.0,7.0,70,0.00,,,0.00,meteohub,2013-04-17 21:54:00,
2013-04-17 16:56:00,79.0,68.4,-100.00,SSE,158,4.0,7.0,70,0.00,,,0.00,meteohub,2013-04-17 21:56:00,
2013-04-17 16:58:00,79.0,68.4,-100.00,SSW,203,1.0,7.0,70,0.00,,,0.00,meteohub,2013-04-17 21:58:00,
2013-04-17 17:02:00,79.2,68.5,-100.00,South,180,3.0,7.0,70,0.00,,,0.00,meteohub,2013-04-17 22:02:00,
2013-04-17 17:04:00,79.0,68.0,-100.00,East,90,8.0,8.0,69,0.00,,,0.00,meteohub,2013-04-17 22:04:00,
2013-04-17 17:06:00,78.8,68.2,-100.00,SSW,203,9.0,9.0,70,0.00,,,0.00,meteohub,2013-04-17 22:06:00,
2013-04-17 17:08:00,78.6,68.0,-100.00,SSE,158,6.0,8.0,70,0.00,,,0.00,meteohub,2013-04-17 22:08:00,
2013-04-17 17:10:00,78.6,68.0,-100.00,ENE,68,2.0,9.0,70,0.00,,,0.00,meteohub,2013-04-17 22:10:00,
2013-04-17 17:12:00,79.0,68.4,-100.00,East,90,7.0,9.0,70,0.00,,,0.00,meteohub,2013-04-17 22:12:00,
2013-04-17 17:16:00,78.8,68.2,-100.00,SSE,158,2.0,9.0,70,0.00,,,0.00,meteohub,2013-04-17 22:16:00,
2013-04-17 17:17:00,78.8,68.2,-100.00,SSE,158,2.0,9.0,70,0.00,,,0.00,meteohub,2013-04-17 22:17:00,
2013-04-17 17:22:00,78.4,68.2,-100.00,SE,135,2.0,9.0,71,0.00,,,0.00,meteohub,2013-04-17 22:22:00,
2013-04-17 17:24:00,78.4,68.2,-100.00,SE,135,2.0,9.0,71,0.00,,,0.00,meteohub,2013-04-17 22:24:00,
2013-04-17 17:28:00,78.4,68.2,-100.00,SSW,203,7.0,7.0,71,0.00,,,0.00,meteohub,2013-04-17 22:28:00,
2013-04-17 17:30:00,78.3,68.0,-100.00,East,90,0.0,7.0,71,0.00,,,0.00,meteohub,2013-04-17 22:30:00,
2013-04-17 17:32:00,78.1,67.8,-100.00,ESE,113,5.0,7.0,71,0.00,,,0.00,meteohub,2013-04-17 22:32:00,
2013-04-17 17:39:00,77.9,68.2,-100.00,ESE,113,4.0,7.0,72,0.00,,,0.00,meteohub,2013-04-17 22:39:00,
2013-04-17 17:41:00,77.9,68.2,-100.00,WSW,248,2.0,7.0,72,0.00,,,0.00,meteohub,2013-04-17 22:41:00,
2013-04-17 17:43:00,77.9,68.2,-100.00,WSW,248,2.0,7.0,72,0.00,,,0.00,meteohub,2013-04-17 22:43:00,
2013-04-17 17:45:00,77.9,68.2,-100.00,East,90,4.0,7.0,72,0.00,,,0.00,meteohub,2013-04-17 22:45:00,
2013-04-17 17:47:00,77.9,68.2,-100.00,North,0,4.0,5.0,72,0.00,,,0.00,meteohub,2013-04-17 22:47:00,
2013-04-17 17:51:00,77.9,68.2,-100.00,SSW,203,5.0,5.0,72,0.00,,,0.00,meteohub,2013-04-17 22:51:00,
2013-04-17 17:53:00,77.7,68.0,-100.00,SSW,203,5.0,5.0,72,0.00,,,0.00,meteohub,2013-04-17 22:53:00,
2013-04-17 17:55:00,77.9,68.5,-100.00,South,180,2.0,4.0,73,0.00,,,0.00,meteohub,2013-04-17 22:55:00,
2013-04-17 17:57:00,77.9,68.2,-100.00,SSW,203,2.0,5.0,72,0.00,,,0.00,meteohub,2013-04-17 22:57:00,
2013-04-17 17:59:00,77.9,68.2,-100.00,SSW,203,2.0,5.0,72,0.00,,,0.00,meteohub,2013-04-17 22:59:00,
2013-04-17 18:05:00,77.7,68.0,-100.00,SE,135,3.0,5.0,72,0.00,,,0.00,meteohub,2013-04-17 23:05:00,
2013-04-17 18:07:00,77.7,68.0,-100.00,East,90,5.0,5.0,72,0.00,,,0.00,meteohub,2013-04-17 23:07:00,
2013-04-17 18:11:00,77.5,68.2,-100.00,NE,45,6.0,6.0,73,0.00,,,0.00,meteohub,2013-04-17 23:11:00,
2013-04-17 18:13:00,77.5,68.2,-100.00,East,90,4.0,5.0,73,0.00,,,0.00,meteohub,2013-04-17 23:13:00,
2013-04-17 18:17:00,77.5,68.2,-100.00,SE,135,4.0,6.0,73,0.00,,,0.00,meteohub,2013-04-17 23:17:00,
2013-04-17 18:21:00,77.5,68.5,-100.00,ESE,113,4.0,6.0,74,0.00,,,0.00,meteohub,2013-04-17 23:21:00,
2013-04-17 18:25:00,77.4,68.4,-100.00,SW,225,12.0,12.0,74,0.00,,,0.00,meteohub,2013-04-17 23:25:00,
2013-04-17 18:27:00,77.4,68.4,-100.00,ESE,113,4.0,6.0,74,0.00,,,0.00,meteohub,2013-04-17 23:27:00,
2013-04-17 18:29:00,77.2,68.2,-100.00,NE,45,4.0,6.0,74,0.00,,,0.00,meteohub,2013-04-17 23:29:00,
2013-04-17 18:31:00,77.2,68.2,-100.00,SW,225,6.0,12.0,74,0.00,,,0.00,meteohub,2013-04-17 23:31:00,
2013-04-17 18:33:00,77.0,68.0,-100.00,SW,225,2.0,12.0,74,0.00,,,0.00,meteohub,2013-04-17 23:33:00,
2013-04-17 18:37:00,77.0,68.0,-100.00,ENE,68,4.0,12.0,74,0.00,,,0.00,meteohub,2013-04-17 23:37:00,
2013-04-17 18:39:00,76.8,67.8,-100.00,ESE,113,0.0,12.0,74,0.00,,,0.00,meteohub,2013-04-17 23:39:00,
2013-04-17 18:41:00,76.8,67.8,-100.00,SE,135,2.0,12.0,74,0.00,,,0.00,meteohub,2013-04-17 23:41:00,
2013-04-17 18:43:00,76.8,67.8,-100.00,East,90,4.0,12.0,74,0.00,,,0.00,meteohub,2013-04-17 23:43:00,
2013-04-17 18:45:00,76.8,67.8,-100.00,SW,225,3.0,6.0,74,0.00,,,0.00,meteohub,2013-04-17 23:45:00,
2013-04-17 18:47:00,76.6,68.2,-100.00,SSE,158,6.0,6.0,75,0.00,,,0.00,meteohub,2013-04-17 23:47:00,
2013-04-17 18:51:00,76.5,68.0,-100.00,ESE,113,3.0,7.0,75,0.00,,,0.00,meteohub,2013-04-17 23:51:00,
2013-04-17 18:53:00,76.5,68.0,-100.00,SSW,203,2.0,7.0,75,0.00,,,0.00,meteohub,2013-04-17 23:53:00,
2013-04-17 18:57:00,76.1,67.6,-100.00,East,90,4.0,7.0,75,0.00,,,0.00,meteohub,2013-04-17 23:57:00,
2013-04-17 19:01:00,76.1,68.0,-100.00,NNE,23,3.0,7.0,76,0.00,,,0.00,meteohub,2013-04-18 00:01:00,
2013-04-17 19:02:00,76.1,68.0,-100.00,NNE,23,3.0,7.0,76,0.00,,,0.00,meteohub,2013-04-18 00:02:00,
2013-04-17 19:05:00,75.9,67.8,-100.00,SSE,158,5.0,5.0,76,0.00,,,0.00,meteohub,2013-04-18 00:05:00,
2013-04-17 19:07:00,75.9,67.8,-100.00,SSW,203,2.0,5.0,76,0.00,,,0.00,meteohub,2013-04-18 00:07:00,
2013-04-17 19:13:00,75.9,67.8,-100.00,NE,45,4.0,5.0,76,0.00,,,0.00,meteohub,2013-04-18 00:13:00,
2013-04-17 19:16:00,75.9,67.8,-100.00,ENE,68,3.0,5.0,76,0.00,,,0.00,meteohub,2013-04-18 00:16:00,
2013-04-17 19:17:00,75.7,67.6,-100.00,SW,225,7.0,7.0,76,0.00,,,0.00,meteohub,2013-04-18 00:17:00,
2013-04-17 19:20:00,75.7,67.6,-100.00,ESE,113,1.0,5.0,76,0.00,,,0.00,meteohub,2013-04-18 00:20:00,
2013-04-17 19:24:00,75.7,67.6,-100.00,South,180,1.0,7.0,76,0.00,,,0.00,meteohub,2013-04-18 00:24:00,
2013-04-17 19:26:00,75.6,67.8,-100.00,SSE,158,0.0,7.0,77,0.00,,,0.00,meteohub,2013-04-18 00:26:00,
2013-04-17 19:28:00,75.6,67.8,-100.00,South,180,2.0,7.0,77,0.00,,,0.00,meteohub,2013-04-18 00:28:00,
2013-04-17 19:32:00,75.4,67.6,-100.00,ESE,113,3.0,7.0,77,0.00,,,0.00,meteohub,2013-04-18 00:32:00,
2013-04-17 19:34:00,75.4,67.6,-100.00,SSW,203,0.0,7.0,77,0.00,,,0.00,meteohub,2013-04-18 00:34:00,
2013-04-17 19:36:00,75.4,67.6,-100.00,SSW,203,4.0,4.0,77,0.00,,,0.00,meteohub,2013-04-18 00:36:00,
2013-04-17 19:38:00,75.4,67.6,-100.00,ESE,113,0.0,4.0,77,0.00,,,0.00,meteohub,2013-04-18 00:38:00,
2013-04-17 19:40:00,75.4,67.6,-100.00,South,180,0.0,4.0,77,0.00,,,0.00,meteohub,2013-04-18 00:40:00,
2013-04-17 19:46:00,75.4,68.0,-100.00,SSW,203,4.0,4.0,78,0.00,,,0.00,meteohub,2013-04-18 00:46:00,
2013-04-17 19:47:00,75.0,67.6,-100.00,SSW,203,2.0,4.0,78,0.00,,,0.00,meteohub,2013-04-18 00:47:00,
2013-04-17 19:50:00,75.0,67.6,-100.00,SSW,203,3.0,4.0,78,0.00,,,0.00,meteohub,2013-04-18 00:50:00,
2013-04-17 19:52:00,75.0,67.6,-100.00,ESE,113,1.0,4.0,78,0.00,,,0.00,meteohub,2013-04-18 00:52:00,
2013-04-17 19:54:00,75.0,67.6,-100.00,ESE,113,4.0,4.0,78,0.00,,,0.00,meteohub,2013-04-18 00:54:00,
2013-04-17 19:58:00,74.8,67.5,-100.00,ENE,68,2.0,4.0,78,0.00,,,0.00,meteohub,2013-04-18 00:58:00,
2013-04-17 20:00:00,74.8,67.8,-100.00,East,90,3.0,4.0,79,0.00,,,0.00,meteohub,2013-04-18 01:00:00,
2013-04-17 20:04:00,74.8,67.8,-100.00,SW,225,2.0,4.0,79,0.00,,,0.00,meteohub,2013-04-18 01:04:00,
2013-04-17 20:06:00,74.8,67.8,-100.00,SE,135,3.0,4.0,79,0.00,,,0.00,meteohub,2013-04-18 01:06:00,
2013-04-17 20:08:00,74.8,67.8,-100.00,NE,45,2.0,4.0,79,0.00,,,0.00,meteohub,2013-04-18 01:08:00,
2013-04-17 20:10:00,74.7,67.6,-100.00,ESE,113,2.0,3.0,79,0.00,,,0.00,meteohub,2013-04-18 01:10:00,
2013-04-17 20:12:00,74.7,67.6,-100.00,NE,45,3.0,3.0,79,0.00,,,0.00,meteohub,2013-04-18 01:12:00,
2013-04-17 20:14:00,74.5,67.5,-100.00,ENE,68,1.0,3.0,79,0.00,,,0.00,meteohub,2013-04-18 01:14:00,
2013-04-17 20:16:00,74.5,67.8,-100.00,ESE,113,2.0,3.0,80,0.00,,,0.00,meteohub,2013-04-18 01:16:00,
2013-04-17 20:17:00,74.5,67.8,-100.00,ESE,113,2.0,3.0,80,0.00,,,0.00,meteohub,2013-04-18 01:17:00,
2013-04-17 20:20:00,74.5,67.8,-100.00,South,180,3.0,3.0,80,0.00,,,0.00,meteohub,2013-04-18 01:20:00,
2013-04-17 20:22:00,74.5,67.8,-100.00,South,180,3.0,3.0,80,0.00,,,0.00,meteohub,2013-04-18 01:22:00,
2013-04-17 20:24:00,74.5,67.8,-100.00,ENE,68,3.0,3.0,80,0.00,,,0.00,meteohub,2013-04-18 01:24:00,
2013-04-17 20:26:00,74.5,67.8,-100.00,East,90,0.0,3.0,80,0.00,,,0.00,meteohub,2013-04-18 01:26:00,
2013-04-17 20:28:00,74.5,67.8,-100.00,ESE,113,2.0,3.0,80,0.00,,,0.00,meteohub,2013-04-18 01:28:00,
2013-04-17 20:30:00,74.3,67.6,-100.00,ESE,113,3.0,3.0,80,0.00,,,0.00,meteohub,2013-04-18 01:30:00,
2013-04-17 20:32:00,74.3,67.6,-100.00,WSW,248,0.0,3.0,80,0.00,,,0.00,meteohub,2013-04-18 01:32:00,
2013-04-17 20:34:00,74.3,67.6,-100.00,ENE,68,1.0,3.0,80,0.00,,,0.00,meteohub,2013-04-18 01:34:00,
2013-04-17 20:40:00,74.1,68.0,-100.00,NE,45,0.0,4.0,81,0.00,,,0.00,meteohub,2013-04-18 01:40:00,
2013-04-17 20:44:00,74.1,68.0,-100.00,ENE,68,0.0,4.0,81,0.00,,,0.00,meteohub,2013-04-18 01:44:00,
2013-04-17 20:47:00,74.1,68.0,-100.00,ESE,113,3.0,4.0,81,0.00,,,0.00,meteohub,2013-04-18 01:47:00,
2013-04-17 20:50:00,74.1,68.0,-100.00,East,90,5.0,5.0,81,0.00,,,0.00,meteohub,2013-04-18 01:50:00,
2013-04-17 20:52:00,73.9,67.8,-100.00,East,90,5.0,5.0,81,0.00,,,0.00,meteohub,2013-04-18 01:52:00,
2013-04-17 20:56:00,73.9,67.8,-100.00,SW,225,5.0,5.0,81,0.00,,,0.00,meteohub,2013-04-18 01:56:00,
2013-04-17 20:58:00,73.9,68.2,-100.00,SSE,158,0.0,5.0,82,0.00,,,0.00,meteohub,2013-04-18 01:58:00,
2013-04-17 21:00:00,73.9,68.2,-100.00,ENE,68,1.0,5.0,82,0.00,,,0.00,meteohub,2013-04-18 02:00:00,
2013-04-17 21:02:00,73.9,68.2,-100.00,East,90,2.0,5.0,82,0.00,,,0.00,meteohub,2013-04-18 02:02:00,
2013-04-17 21:04:00,73.8,68.0,-100.00,NE,45,4.0,5.0,82,0.00,,,0.00,meteohub,2013-04-18 02:04:00,
2013-04-17 21:06:00,73.8,68.0,-100.00,NE,45,2.0,5.0,82,0.00,,,0.00,meteohub,2013-04-18 02:06:00,
2013-04-17 21:08:00,73.8,68.0,-100.00,SE,135,2.0,5.0,82,0.00,,,0.00,meteohub,2013-04-18 02:08:00,
2013-04-17 21:10:00,73.8,68.0,-100.00,ESE,113,0.0,5.0,82,0.00,,,0.00,meteohub,2013-04-18 02:10:00,
2013-04-17 21:15:00,73.6,68.2,-100.00,ESE,113,0.0,5.0,83,0.00,,,0.00,meteohub,2013-04-18 02:15:00,
2013-04-17 21:17:00,73.6,68.2,-100.00,East,90,4.0,4.0,83,0.00,,,0.00,meteohub,2013-04-18 02:17:00,
2013-04-17 21:19:00,73.6,68.2,-100.00,SW,225,1.0,4.0,83,0.00,,,0.00,meteohub,2013-04-18 02:19:00,
2013-04-17 21:23:00,73.6,68.2,-100.00,WSW,248,3.0,4.0,83,0.00,,,0.00,meteohub,2013-04-18 02:23:00,
2013-04-17 21:25:00,73.6,68.2,-100.00,SE,135,0.0,4.0,83,0.00,,,0.00,meteohub,2013-04-18 02:25:00,
2013-04-17 21:27:00,73.6,68.2,-100.00,NE,45,2.0,4.0,83,0.00,,,0.00,meteohub,2013-04-18 02:27:00,
2013-04-17 21:29:00,73.6,68.2,-100.00,ESE,113,2.0,4.0,83,0.00,,,0.00,meteohub,2013-04-18 02:29:00,
2013-04-17 21:32:00,73.6,68.2,-100.00,ESE,113,1.0,4.0,83,0.00,,,0.00,meteohub,2013-04-18 02:32:00,
2013-04-17 21:33:00,73.6,68.2,-100.00,ESE,113,1.0,4.0,83,0.00,,,0.00,meteohub,2013-04-18 02:33:00,
2013-04-17 21:37:00,73.6,68.2,-100.00,ESE,113,2.0,4.0,83,0.00,,,0.00,meteohub,2013-04-18 02:37:00,
2013-04-17 21:39:00,73.4,68.0,-100.00,SE,135,2.0,4.0,83,0.00,,,0.00,meteohub,2013-04-18 02:39:00,
2013-04-17 21:41:00,73.4,68.2,-100.00,SE,135,4.0,4.0,84,0.00,,,0.00,meteohub,2013-04-18 02:41:00,
2013-04-17 21:43:00,73.4,68.2,-100.00,ESE,113,1.0,2.0,84,0.00,,,0.00,meteohub,2013-04-18 02:43:00,
2013-04-17 21:45:00,73.4,68.2,-100.00,East,90,0.0,2.0,84,0.00,,,0.00,meteohub,2013-04-18 02:45:00,
2013-04-17 21:47:00,73.2,68.2,-100.00,ESE,113,0.0,4.0,84,0.00,,,0.00,meteohub,2013-04-18 02:47:00,
2013-04-17 21:49:00,73.2,68.2,-100.00,SE,135,0.0,4.0,84,0.00,,,0.00,meteohub,2013-04-18 02:49:00,
2013-04-17 21:51:00,73.2,68.2,-100.00,South,180,2.0,4.0,84,0.00,,,0.00,meteohub,2013-04-18 02:51:00,
2013-04-17 21:53:00,73.2,68.2,-100.00,ENE,68,2.0,4.0,84,0.00,,,0.00,meteohub,2013-04-18 02:53:00,
2013-04-17 21:55:00,73.2,68.2,-100.00,SE,135,1.0,4.0,84,0.00,,,0.00,meteohub,2013-04-18 02:55:00,
2013-04-17 21:57:00,73.2,68.2,-100.00,South,180,2.0,4.0,84,0.00,,,0.00,meteohub,2013-04-18 02:57:00,
2013-04-17 22:01:00,73.2,68.2,-100.00,ESE,113,0.0,2.0,84,0.00,,,0.00,meteohub,2013-04-18 03:01:00,
2013-04-17 22:03:00,73.2,68.2,-100.00,ENE,68,1.0,2.0,84,0.00,,,0.00,meteohub,2013-04-18 03:03:00,
2013-04-17 22:05:00,73.2,68.2,-100.00,ENE,68,1.0,2.0,84,0.00,,,0.00,meteohub,2013-04-18 03:05:00,
2013-04-17 22:07:00,73.2,68.2,-100.00,SSW,203,0.0,2.0,84,0.00,,,0.00,meteohub,2013-04-18 03:07:00,
2013-04-17 22:09:00,73.2,68.2,-100.00,East,90,3.0,3.0,84,0.00,,,0.00,meteohub,2013-04-18 03:09:00,
2013-04-17 22:11:00,73.2,68.2,-100.00,ENE,68,2.0,2.0,84,0.00,,,0.00,meteohub,2013-04-18 03:11:00,
2013-04-17 22:13:00,73.2,68.2,-100.00,ESE,113,1.0,2.0,84,0.00,,,0.00,meteohub,2013-04-18 03:13:00,
2013-04-17 22:15:00,73.2,68.2,-100.00,East,90,1.0,3.0,84,0.00,,,0.00,meteohub,2013-04-18 03:15:00,
2013-04-17 22:17:00,73.2,68.2,-100.00,SE,135,2.0,3.0,84,0.00,,,0.00,meteohub,2013-04-18 03:17:00,
2013-04-17 22:19:00,73.2,68.2,-100.00,SE,135,3.0,3.0,84,0.00,,,0.00,meteohub,2013-04-18 03:19:00,
2013-04-17 22:22:00,73.2,68.2,-100.00,ENE,68,2.0,3.0,84,0.00,,,0.00,meteohub,2013-04-18 03:22:00,
2013-04-17 22:23:00,73.2,68.2,-100.00,ESE,113,6.0,6.0,84,0.00,,,0.00,meteohub,2013-04-18 03:23:00,
2013-04-17 22:27:00,73.2,68.2,-100.00,ESE,113,2.0,6.0,84,0.00,,,0.00,meteohub,2013-04-18 03:27:00,
2013-04-17 22:31:00,73.2,68.4,-100.00,SE,135,0.0,6.0,85,0.00,,,0.00,meteohub,2013-04-18 03:31:00,
2013-04-17 22:32:00,73.2,68.4,-100.00,SE,135,0.0,6.0,85,0.00,,,0.00,meteohub,2013-04-18 03:32:00,
2013-04-17 22:33:00,73.2,68.4,-100.00,ESE,113,2.0,6.0,85,0.00,,,0.00,meteohub,2013-04-18 03:33:00,
2013-04-17 22:35:00,73.2,68.4,-100.00,ENE,68,4.0,6.0,85,0.00,,,0.00,meteohub,2013-04-18 03:35:00,
2013-04-17 22:39:00,73.2,68.4,-100.00,ENE,68,1.0,6.0,85,0.00,,,0.00,meteohub,2013-04-18 03:39:00,
2013-04-17 22:41:00,73.2,68.4,-100.00,ENE,68,1.0,4.0,85,0.00,,,0.00,meteohub,2013-04-18 03:41:00,
2013-04-17 22:43:00,73.2,68.4,-100.00,East,90,4.0,4.0,85,0.00,,,0.00,meteohub,2013-04-18 03:43:00,
2013-04-17 22:47:00,73.2,68.7,-100.00,East,90,4.0,4.0,86,0.00,,,0.00,meteohub,2013-04-18 03:47:00,
2013-04-17 22:49:00,73.2,68.7,-100.00,NE,45,4.0,4.0,86,0.00,,,0.00,meteohub,2013-04-18 03:49:00,
2013-04-17 22:51:00,73.0,68.5,-100.00,SE,135,2.0,5.0,86,0.00,,,0.00,meteohub,2013-04-18 03:51:00,
2013-04-17 22:55:00,73.0,68.5,-100.00,SW,225,11.0,11.0,86,0.00,,,0.00,meteohub,2013-04-18 03:55:00,
2013-04-17 22:57:00,73.0,68.5,-100.00,South,180,3.0,5.0,86,0.00,,,0.00,meteohub,2013-04-18 03:57:00,
2013-04-17 23:01:00,73.0,68.5,-100.00,NE,45,2.0,11.0,86,0.00,,,0.00,meteohub,2013-04-18 04:01:00,
2013-04-17 23:03:00,73.0,68.5,-100.00,SE,135,3.0,11.0,86,0.00,,,0.00,meteohub,2013-04-18 04:03:00,
2013-04-17 23:07:00,73.0,68.5,-100.00,SSE,158,3.0,11.0,86,0.00,,,0.00,meteohub,2013-04-18 04:07:00,
2013-04-17 23:09:00,73.0,68.5,-100.00,SW,225,2.0,11.0,86,0.00,,,0.00,meteohub,2013-04-18 04:09:00,
2013-04-17 23:15:00,73.0,68.5,-100.00,SSE,158,2.0,3.0,86,0.00,,,0.00,meteohub,2013-04-18 04:15:00,
2013-04-17 23:17:00,73.0,68.5,-100.00,SE,135,2.0,3.0,86,0.00,,,0.00,meteohub,2013-04-18 04:17:00,
2013-04-17 23:19:00,73.0,68.5,-100.00,ESE,113,3.0,3.0,86,0.00,,,0.00,meteohub,2013-04-18 04:19:00,
2013-04-17 23:25:00,73.0,68.5,-100.00,ENE,68,4.0,4.0,86,0.00,,,0.00,meteohub,2013-04-18 04:25:00,
2013-04-17 23:27:00,73.0,68.5,-100.00,South,180,1.0,3.0,86,0.00,,,0.00,meteohub,2013-04-18 04:27:00,
2013-04-17 23:32:00,73.0,68.5,-100.00,ESE,113,1.0,4.0,86,0.00,,,0.00,meteohub,2013-04-18 04:32:00,
2013-04-17 23:34:00,73.0,68.5,-100.00,SE,135,2.0,4.0,86,0.00,,,0.00,meteohub,2013-04-18 04:34:00,
2013-04-17 23:36:00,73.0,68.5,-100.00,WNW,293,3.0,4.0,86,0.00,,,0.00,meteohub,2013-04-18 04:36:00,
2013-04-17 23:38:00,73.0,68.5,-100.00,SSE,158,3.0,4.0,86,0.00,,,0.00,meteohub,2013-04-18 04:38:00,
2013-04-17 23:44:00,72.9,68.4,-100.00,ENE,68,1.0,4.0,86,0.00,,,0.00,meteohub,2013-04-18 04:44:00,
2013-04-17 23:46:00,72.9,68.4,-100.00,NE,45,2.0,4.0,86,0.00,,,0.00,meteohub,2013-04-18 04:46:00,
2013-04-17 23:47:00,72.9,68.4,-100.00,NE,45,2.0,4.0,86,0.00,,,0.00,meteohub,2013-04-18 04:47:00,
2013-04-17 23:50:00,72.9,68.4,-100.00,ENE,68,6.0,6.0,86,0.00,,,0.00,meteohub,2013-04-18 04:50:00,
2013-04-17 23:52:00,72.9,68.7,-100.00,SSW,203,7.0,7.0,87,0.00,,,0.00,meteohub,2013-04-18 04:52:00,
2013-04-17 23:54:00,72.7,68.5,-100.00,SSW,203,3.0,6.0,87,0.00,,,0.00,meteohub,2013-04-18 04:54:00,
2013-04-17 23:56:00,72.7,68.5,-100.00,NE,45,3.0,7.0,87,0.00,,,0.00,meteohub,2013-04-18 04:56:00,
2013-04-17 23:58:00,72.7,68.5,-100.00,SSW,203,2.0,7.0,87,0.00,,,0.00,meteohub,2013-04-18 04:58:00,